Regional Weather Roundup
Issued by NWS

Home | Current Version | Previous Version | Text Only | Print | Product List | Glossary Off
Versions: 1 2 3 4 5 6 7 8 9 10 11 12 13 14 15 16 17 18 19 20 21 22 23 24 25 26 27 28 29 30 31 32 33 34 35 36 37 38 39 40 41 42 43 44 45 46 47 48 49 50

326
ASUS45 KCYS 271510
RWRWY

WYOMING REGIONAL WEATHER ROUNDUP
NATIONAL WEATHER SERVICE CHEYENNE WY
900 AM MDT THU APR 27 2017

NOTE:  "FAIR" INDICATES FEW OR NO CLOUDS BELOW 12,000 FEET
WITH NO SIGNIFICANT WEATHER AND/OR OBSTRUCTIONS TO VISIBILITY.

WYZ001-271600-
YELLOWSTONE NATIONAL PARK

CITY           SKY/WX    TMP DP  RH WIND       PRES   REMARKS
LK YELLOWSTONE   N/A     26  23  88 NW9G16    29.61R WCI  17
W YELLOWSTONE  NOT AVBL

$$
WYZ002>013-054>058-071-098>099-271600-
NORTHERN WYOMING

CITY           SKY/WX    TMP DP  RH WIND       PRES   REMARKS
JACKSON        LGT SNOW  30  30 100 SW9       29.62R VSB 1   WCI  22
CODY           CLOUDY    38  35  89 NE3       29.59S
GREYBULL       CLOUDY    41  35  79 NW22      29.54S
WORLAND        CLOUDY    40  37  89 N12       29.55S WCI  33
SHERIDAN       LGT RAIN  34  32  92 CALM      29.58S FOG
BUFFALO        CLOUDY    35  31  85 NE9       29.55S FOG     WCI  28
GILLETTE       CLOUDY    36  35  96 S10       29.56S WCI  28
HULETT         PTSUNNY   36  30  80 E9        29.59S WCI  29
NEWCASTLE      FAIR      37  32  81 S10       29.59S WCI  30

$$
WYZ014>020-022>026-101>103-271600-
CENTRAL WYOMING

CITY           SKY/WX    TMP DP  RH WIND       PRES   REMARKS
BIG PINEY      CLOUDY    34  27  75 NW12      29.61R WCI  25
PINEDALE       CLOUDY    32  28  86 W15       29.61S WCI  22
DUBOIS         CLOUDY    32  28  86 NW10      29.53S WCI  24
LANDER         CLOUDY    42  34  73 N6        29.51S
RIVERTON       PTSUNNY   42  35  76 NE8       29.52S
CASPER         CLOUDY    44  37  76 W12       29.51S
DOUGLAS        CLOUDY    42  38  85 SE8       29.54S

$$
WYZ021-027>030-104>119-271600-
SOUTHERN WYOMING

CITY           SKY/WX    TMP DP  RH WIND       PRES   REMARKS
EVANSTON       CLOUDY    31  26  82 W25G32    29.73F WCI  17
KEMMERER       LGT SNOW  28  27  93 W29G36    29.66S WCI  13
FORT BRIDGER   FAIR      32  25  76 W28G39    29.72S WCI  18
ROCK SPRINGS   FAIR      34  26  72 W30G38    29.63F WCI  20
DIXON            N/A     36  33  89 W9        29.67S WCI  29
RAWLINS        LGT SNOW  34  30  85 W20       29.58S VSB 3/4 WCI  23
SARATOGA       CLOUDY    36  30  80 W16G23    29.60F WCI  26
LARAMIE        CLOUDY    34  32  92 E5        29.56F WCI  30
CHEYENNE       LGT RAIN  39  35  86 NE3       29.58F
TORRINGTON     CLOUDY    42  39  89 N5        29.56F
PINE BLUFFS    RAIN      43  36  75 CALM      29.59S

$$




USA.gov is the U.S. government's official web portal to all federal, state and local government web resources and services.